Location: Devils Tower National Monument
(44.5904°N, 104.7201°W)
Time: 04:15:06
(UTC-07:00)

Envisat - Pass Details

Date: 27 January 2020
Orbit: 764 x 766 km, 98.1° (Epoch: 23 February)

Event Time Altitude Azimuth Distance (km) Brightness Sun altitude
Rises 06:17:49 0° 18° (NNE) 3,240 6.3 -11.8°
Reaches altitude 10° 06:20:13 10° 24° (NNE) 2,309 5.6 -11.4°
Maximum altitude 06:25:09 49° 99° (E) 977 4.1 -10.5°
Drops below altitude 10° 06:30:02 10° 174° (S) 2,291 5.8 -9.7°
Sets 06:32:24 0° 180° (S) 3,212 6.5 -9.3°
